#timestamp,LO_Frequency,Hit,StdDev 
1535799615.7,286046998.2,N
1535799635.6,286047000.5,N
1535799655.4,286046998.3,N
1535799675.2,286047001.2,N
1535799695.1,286046996.9,N
1535799696.0,286046996.9,N
1535799715.8,286046994.9,Y
1535799735.7,286046993.4,P
1535799755.5,286046993.5,N
1535799775.3,286046995.4,N
1535799795.2,286046999.3,N
1535799815.0,286046999.8,N
1535799815.9,286046999.8,N
1535799835.7,286047000.0,N
1535799855.6,286047000.0,N
1535799875.4,286047001.4,N
1535799895.3,286047002.0,N
1535799915.1,286047002.2,N
1535799946.0,286046999.8,E
1535799955.0,286047000.4,N
1535799955.9,286047000.4,P
1535799975.8,286047002.8,P
1535799995.6,286047001.6,N
1535800015.5,286047002.8,N
1535800035.3,286046996.6,Y
1535800055.1,286046995.5,P
1535800075.9,286046999.4,N
1535800095.7,286047000.9,N
1535800115.5,286047001.8,N
1535800135.4,286047004.0,N
1535800155.2,286047003.9,N
1535800175.1,286047007.5,N
1535800176.0,286047007.5,N
1535800195.8,286047005.7,N
1535800215.6,286047003.5,N
1535800235.5,286047001.5,N
1535800255.3,286047005.5,N
1535800275.1,286047006.8,N
1535800295.9,286047006.4,N
1535800315.7,286047005.7,N
1535800335.6,286047005.8,N
1535800355.4,286047007.2,N
1535800375.2,286047006.8,N
1535800395.1,286047006.0,N
1535800396.0,286047006.0,N
1535800415.8,286047007.2,N
1535800435.6,286047008.7,N
1535800455.5,286047008.3,N
1535800475.3,286047007.5,N
1535800495.2,286047008.4,N
1535800515.9,286047008.2,N
1535800535.7,286047012.0,Y
1535800555.6,286047007.3,P
1535800575.4,286047005.5,P
1535800595.2,286047003.9,P
1535800615.1,286047002.6,N
1535800616.0,286047002.6,N
1535800635.8,286047002.8,N
1535800655.7,286046998.8,N
1535800675.5,286046996.7,N
1535800695.3,286046997.9,N
1535800715.2,286046995.0,N
1535800735.0,286046993.4,N
1535800735.9,286046993.4,N
1535800755.7,286046995.7,N
1535800775.6,286047001.2,N
1535800795.4,286046999.0,N
1535800815.3,286046996.9,N
1535800835.1,286046999.0,N
1535800836.0,286046999.0,N
1535800855.8,286046997.1,N
1535800875.7,286046997.8,N
1535800895.5,286046997.6,N
1535800915.3,286046995.7,N
1535800935.2,286046995.2,N
1535800955.0,286046995.5,N
1535800955.9,286046995.5,N
1535800975.8,286046994.6,N
1535800995.6,286046995.5,N
1535801015.4,286046995.6,N
1535801035.3,286046997.9,N
1535801055.1,286046998.4,N
1535801075.8,286046999.4,N
1535801095.7,286046997.4,N
1535801115.5,286046998.4,N
1535801135.4,286046999.7,N
1535801155.2,286047000.3,N
1535801175.0,286046999.3,N
1535801175.9,286046999.3,N
1535801195.8,286046996.7,N
1535801215.6,286046997.5,N
1535801235.4,286046999.6,N
1535801255.3,286046997.5,N
1535801275.1,286046995.6,N
1535801295.9,286046998.9,N
1535801315.7,286047001.1,N
1535801335.5,286046998.3,N
1535801355.4,286046999.2,N
1535801375.2,286046996.2,N
1535801395.1,286046993.9,Y
1535801396.0,286046993.9,P
1535801415.8,286046999.4,N
1535801435.6,286046996.6,N
1535801455.5,286046997.3,N
1535801475.3,286046994.9,N
1535801495.1,286046999.3,N
1535801515.9,286047000.5,N
1535801535.7,286047000.5,N
1535801555.6,286047001.6,N
1535801575.4,286047006.0,N
1535801595.2,286047005.2,N
1535801615.1,286047005.3,N
1535801616.0,286047005.3,N
1535801635.8,286047005.1,N
1535801655.7,286047005.1,N
1535801675.5,286047004.9,N
1535801695.3,286047004.9,N
1535801715.2,286047006.6,N
1535801735.9,286047005.7,N
1535801755.7,286047004.6,N
1535801775.6,286047003.2,N
1535801795.4,286047001.9,N
1535801815.2,286047002.0,N
1535801835.1,286047005.1,N
1535801836.0,286047005.1,N
1535801855.8,286047004.9,N
1535801875.7,286047005.4,N
1535801895.5,286047005.8,N
1535801915.3,286047006.0,N
1535801935.2,286047006.0,N
1535801955.0,286047005.7,N
1535801955.9,286047005.7,N
1535801975.7,286047003.1,N
1535801995.6,286047003.0,N
1535802015.4,286047001.7,N
1535802035.3,286047000.4,N
1535802055.1,286047000.2,N
1535802056.0,286047000.2,N
1535802075.8,286047001.4,N
1535802095.7,286047002.3,N
1535802115.5,286047000.4,N
1535802135.3,286046998.3,N
1535802155.2,286047002.2,N
1535802175.0,286047003.3,N
1535802175.9,286047003.3,N
1535802195.8,286047005.9,N
1535802215.6,286047003.4,N
1535802235.4,286047003.0,N
1535802255.3,286046999.7,N
1535802275.1,286047001.8,N
1535802295.8,286047003.8,N
1535802315.7,286047004.3,N
1535802335.5,286047005.6,N
1535802355.4,286047004.9,N
1535802375.2,286047004.5,N
1535802395.0,286047007.1,Y
1535802395.9,286047007.1,P
1535802415.8,286046999.8,N
1535802435.6,286047002.1,N
1535802455.4,286047000.1,N
1535802475.3,286046999.6,N
1535802495.1,286046995.5,N
1535802515.9,286046997.4,N
1535802535.7,286046999.0,N
1535802555.5,286046998.2,N
1535802575.4,286046998.5,N
1535802595.2,286046998.5,N
1535802615.0,286046998.4,N
1535802616.0,286046998.4,N
1535802635.8,286046997.1,N
1535802655.6,286046995.8,N
1535802675.5,286046995.2,N
1535802695.3,286046998.8,N
1535802715.1,286046996.7,N
1535802735.9,286046997.4,N
1535802755.7,286046994.9,N
1535802775.6,286046997.5,N
1535802795.4,286046997.2,N
1535802815.2,286046995.0,N
1535802835.1,286046995.4,N
1535802836.0,286046995.4,N
1535802855.8,286046995.4,N
1535802875.6,286046995.6,N
1535802895.5,286046992.5,N
1535802915.3,286046995.7,N
1535802935.2,286046996.5,N
1535802955.9,286046997.7,N
1535802975.7,286046995.4,N
1535802995.6,286046997.3,N
1535803015.4,286046995.4,N
1535803035.2,286047000.0,N
1535803055.1,286046999.1,N
1535803056.0,286046999.1,N
1535803075.8,286046996.7,N
1535803095.7,286046998.3,N
1535803115.5,286046998.6,N
1535803135.3,286047002.6,N
1535803155.2,286046998.5,N
1535803175.9,286047002.4,N
1535803195.7,286047000.5,N
